Torna al catalogo

STARLINK-6172

AttivoComunicazioniVLEO
NORAD 57130·PAYLOAD·🇺🇸 United States

Lanciato Jun 23, 2023 da Cape Canaveral Space Force Station

Loading…

Prossimi Passaggi (prossime 24 ore)

TLE

AggiornatoSource: CelesTrak SupGP

Epoca: Sep 15, 2026, 02:52 UTC

1 57130C 23090AF  26258.11993056  .00008243  00000+0  29855-3 0  2583
2 57130  43.0004 291.5059 0002055 271.2403 176.0762 15.27574634    15

Traccia STARLINK-6172 in tempo reale con AllMySat

Download on the App Store